www.pogodaiklimat.ru

Погода и климат >> Архив погоды >> Доминиканская Республика >> Сабана де ла Мар


ПОГОДА в Сабана де ла Мар

  • Прогноз погоды в Сабана де ла Мар
  • Монитор погоды в Сабана де ла Мар

АРХИВ ПОГОДЫ в Сабана де ла Мар

Время (UTC), дата Ветер
(напр.,м/с)
 
Видим.   Явления Облачность Т
(С)
Тd
(С)
f
(%)
Тe
(С)
Тes
(С)
Комфортность P
(гПа)
Po
(гПа)
Тmin
(С)
Tmax
(С)
R
(мм)
R24
(мм)
S
(см)
18 16.01 В 3 16 км 3/3 600 м
[Cu med, cong]
+27.4 +21.9 72 +35 +42 очень
душно
1017.7 1018.0 +11.8 +28.2
21 16.01 В 4 16 км 3/3 600 м
[Cu med, cong]
+27.0 +22.5 76 +35 +36 очень
душно
1016.9 1017.0
00 17.01 Ю 1 16 км 9/9 450 м
[Cu med, cong]
+24.2 +20.5 80 +30 +30 очень
душно
1017.9 1018.0 +11.8 +28.5
12 17.01 ЮВ 2 16 км 3/3 450 м
[Cu med, cong]
+18.0 +16.5 91 +19 +19 1018.1 1018.0 +12.0 +28.2
15 17.01 В 2 16 км 4/4 540 м
[Cu med, cong]
+26.6 +21.2 72 +34 +40 очень
душно
1019.3 1019.0
18 17.01 В 3 16 км 4/4 600 м
[Cu med, cong]
+28.0 +21.8 69 +36 +42 очень
душно
1017.5 1018.0 +12.0 +28.0
21 17.01 В 4 16 км 3/3 600 м
[Cu med, cong]
+27.4 +21.8 72 +35 +36 очень
душно
1016.8 1017.0
00 18.01 ЮВ 3 16 км 5/5 540 м
[Cu med, cong]
+25.0 +20.1 74 +31 +31 очень
душно
1017.2 1017.0 +21.2 +28.0
12 18.01 штиль 0 16 км 9/3 300 м
[Cu med, cong Ac trans]
+21.4 +19.6 89 +26 +27 душно 1017.7 1018.0 +19.0 +28.0 22
15 18.01 штиль 0 16 км 5/4 540 м
[Cu med, cong Ac trans]
+27.0 +22.8 78 +36 +44 очень
душно
1019.1 1019.0
18 18.01 СВ 4 16 км 8/6 540 м
[Cb cap Ac trans]
+28.0 +22.7 73 +37 +39 очень
душно
1017.6 1018.0 +19.0 +28.6
00 19.01 Ю 2 16 км 9/9 540 м
[Cu Sc]
+22.2 +20.2 88 +28 +28 душно 1017.3 1017.0 +19.0 +28.6
12 19.01 Ю 2 16 км 3/3 300 м
[Cu med, cong]
+18.8 +18.5 98 +21 +21 комфорт 1017.8 1018.0 +12.8 +28.6 0.3
15 19.01 ЮЗ 2 16 км 4/3 450 м
[Cu med, cong Ac trans]
+25.4 +22.3 83 +33 +40 очень
душно
1019.5 1020.0
18 19.01 В 4 16 км 3/3 600 м
[Cu med, cong]
+27.8 +21.9 70 +36 +41 очень
душно
1018.7 1019.0 +12.8 +28.0
21 19.01 В 5 16 км 1/1 600 м
[Cu med, cong]
+27.2 +21.2 70 +34 +35 очень
душно
1016.4 1016.0
00 20.01 ЮВ 2 16 км 1/1 450 м
[Cu med, cong]
+23.6 +20.1 81 +29 +29 душно 1017.6 1018.0 +12.8 +28.0
12 20.01 ЮЗ 2 16 км 5/1 450 м
[Cu med, cong]
+23.2 +22.1 94 +32 +32 очень
душно
1017.1 1017.0 +12.2 +28.0
18 20.01 В 4 16 км 1/1 540 м
[Cu med, cong]
+28.4 +22.6 71 +38 +45 очень
душно
1016.9 1017.0 +12.2 +28.5
21 20.01 В 5 16 км 1/1 600 м
[Cu med, cong]
+27.6 +22.0 72 +36 +37 очень
душно
1015.7 1016.0
00 21.01 ЮВ 2 16 км 1/1 600 м
[Cu med, cong]
+24.6 +20.9 80 +31 +31 очень
душно
1016.6 1017.0 +12.2 +28.5
12 21.01 штиль 0 16 км 1/1 600 м
[Cu hum]
+20.8 +19.6 93 +25 +26 комфорт 1017.3 1017.0 +12.0 +28.5
15 21.01 СВ 2 16 км 1/1 600 м
[Cu med, cong]
+27.2 +20.9 68 +34 +44 очень
душно
1018.7 1019.0
21 21.01 В 5 16 км 1/1 600 м
[Cu med, cong]
+27.8 +21.6 69 +36 +36 очень
душно
1016.7 1017.0
00 22.01 ЮВ 3 16 км 1/1 600 м
[Cu hum]
+24.2 +20.7 81 +30 +30 очень
душно
1016.6 1017.0 +12.0 +28.2
12 22.01 Ю 2 16 км 9/9 300 м
[Cu Sc]
+20.6 +20.0 96 +26 +26 душно 1019.8 1020.0 +12.6 +28.2 0.8
15 22.01 В 4 16 км {ливн. осадки} 3/3 450 м
[Cu med, cong]
+27.2 +22.4 75 +36 +41 очень
душно
1021.4 1021.0 1
18 22.01 В 5 16 км 4/4 600 м
[Cu med, cong]
+28.0 +23.6 77 +38 +42 очень
душно
1020.6 1021.0 +12.6 +28.5
21 22.01 В 5 16 км осадки на расстоянии 6/6 450 м
[Cu Sc]
+26.4 +22.5 79 +35 +35 очень
душно
1019.9 1020.0
00 23.01 В 5 16 км 3/3 600 м
[Cu med, cong]
+25.4 +20.5 74 +31 +31 очень
душно
1020.9 1021.0 +12.6 +28.5

 

Местоположение метеостанции Сабана де ла Мар (Доминиканская Республика): широта 19.05 долгота -69.38 высота над уровнем моря 10 м.

В архиве по умолчанию представлена погода в Сабана де ла Мар за последнюю неделю. Архивные данные за месяц целиком и за предыдущие месяцы, начиная с января 2011 года, Вы можете получить, выбрав интересующий диапазон дат из раскрывающегося списка и нажав кнопку "Ввод!".


*Определитесь, кто Вы:
робот инопланетянин человек

Внимание! Время в таблицах - всемирное. Для получения местного времени необходимо прибавить поправку, которая равна -4 ч.

Смотрите также архив погоды в соседних городах и на ближайших метеорологических станциях:

Погода в Лас Америкас (Доминиканская Республика) (75 км)
Погода в Ла Романа аэропорту (Доминиканская Республика) (82 км)
Погода в Санто-Доминго (Доминиканская Республика) (87 км)
Погода в Пунта-Кане (Доминиканская Республика) (120 км)
Погода в Пуэрто-Плате (Доминиканская Республика) (145 км)
Погода в Сантьяго (Доминиканская Республика) (146 км)
Погода в Бараоне (Доминиканская Республика) (204 км)
Погода в Шарлотта-Амалии (Виргинские Острова) (472 км)
Погода в Пунта-де-Маиси (Куба) (517 км)
Погода в Принцессы Юлианы аэропорту (Нидерландские Антилы) (671 км)

Пояснения к столбцам:

Ветер - указаны скорость ветра в м/с - средняя за 10 мин, порывы в срок и между сроками (в фигурных скобках) и направление, откуда дует ветер: С - северный, СВ - северо-восточный, В - восточный, ЮВ - юго-восточный, Ю - южный, ЮЗ - юго-западный, З - западный, СЗ - северо-западный.
Видимость - горизонтальная дальность видимости в метрах или километрах. При видимости от 1 до 10 км при отсутствии осадков обычно наблюдается дымка, при ухудшении видимости до 1 км и менее - туман. В сухую погоду видимость может ухудшаться дымом, пылью или мглою.
Явления - указаны атмосферные явления, наблюдавшиеся в срок или в последний час перед сроком; фигурными скобками обозначены явления, наблюдавшиеся между сроками (за 1-3 часа до срока); квадратными скобками обозначены град или гололедные отложения с указанием их диаметра в мм.
Облачность - указаны через наклонную черту общая и нижняя облачность в баллах и высота нижней границы облаков в метрах; квадратными скобками обозначены формы облаков: Ci - перистые, Cs - перисто-слоистые, Cc - перисто-кучевые, Ac - высококучевые, As - высокослоистые, Sc - слоисто-кучевые, Ns - слоисто-дождевые, Cu - кучевые, Cb - кучево-дождевые. Подробнее классификацию облаков см. в Атласе облаков (PDF).
T - Температура воздуха - температура, измеренная на высоте 2 м над землей.
Td - Температура точки росы - температура, при понижении до которой содержащийся в воздухе водяной пар достигнет насыщения.
f - Относительная влажность воздуха - влажноcть воздуха, измеренная на высоте 2 м над землей.
Te - Эффективная температура - температура, которую ощущает одетый по сезону человек в тени. Характеристика душности погоды. При расчете учитывается влияние влажности воздуха и скорости ветра на теплоощущения человека.
Tes - Эффективная температура на солнце - температура, которую ощущает человек, с поправкой на солнечный нагрев. Характеристика знойности погоды. Зависит от высоты солнца над горизонтом, облачности и скорости ветра. Ночью, в пасмурную погоду, а также при ветре 12 м/с и более поправка равна нулю.
P - Атмосферное давление - приведенное к уровню моря атмосферное давление.
Po - Атмосферное давление - измеренное на уровне метеостанции атмосферное давление.
Tmin - Минимальная температура - минимум температуры воздуха на высоте 2 м над землей.
Tmax - Максимальная температура - максимум температуры воздуха на высоте 2 м над землей.
R - Количество осадков - Количество выпавших осадков за период времени, мм. При наведении курсора мыши на число - период времени, за который выпало указанное количество осадков.
R24 - Количество осадков - Количество выпавших осадков за 24 часа, мм.
S - Снежный покров - Высота снежного покрова, см. При наведении курсора мыши на число - состояние снежного покрова и степень покрытия местности в баллах.